www.pogodaiklimat.ru

Погода и климат >> Архив погоды >> Сербия >> Крушевац


ПОГОДА в Крушеваце

  • Прогноз погоды в Крушеваце
  • Монитор погоды в Крушеваце

АРХИВ ПОГОДЫ в Крушеваце

Время (UTC), дата Ветер
(напр.,м/с)
 
Видим.   Явления Облачность Т
(С)
Тd
(С)
f
(%)
Тe
(С)
Тes
(С)
Комфортность P
(гПа)
Po
(гПа)
Тmin
(С)
Tmax
(С)
R
(мм)
R24
(мм)
S
(см)
01 13.08 Ю 1 20 км ясно +18.7 +15.4 81 +21 +21 комфорт 1012.7 993.2
02 13.08 штиль 0 20 км ясно +17.5 +14.7 84 +17 +17 1012.6 993.1
03 13.08 штиль 0 20 км ясно +17.0 +14.7 86 +17 +17 1012.5 993.0
04 13.08 В 1 20 км ясно +17.2 +14.7 85 +18 +18 1012.8 993.1
05 13.08 Ю 1 20 км ясно +20.2 +15.4 74 +24 +25 комфорт 1012.7 993.2
06 13.08 штиль 0 20 км ясно +22.1 +17.4 75 +27 +32 душно 1012.5 993.2 +16.8
07 13.08 В 3 20 км ясно +27.0 +12.7 41 +29 +35 жарко 1012.1 993.1
08 13.08 В 3 30 км ясно +29.4 +12.0 34 +30 +40 жарко 1011.6 992.8
09 13.08 ЮВ 3 30 км ясно +31.2 +12.4 32 +32 +44 жарко 1011.3 992.6
10 13.08 В 4 30 км ясно +32.5 +12.8 30 +33 +44 жарко 1010.9 992.3
11 13.08 В 3 30 км ясно +34.0 +14.0 30 +35 +49 очень
жарко
1010.1 991.6
12 13.08 В 2 30 км ясно +34.9 +14.3 29 +36 +51 опасность
солнечного
удара
1009.5 991.1
13 13.08 В 3 30 км ясно +35.5 +15.1 30 +37 +47 душно 1009.0 990.6
14 13.08 В 3 30 км ясно +35.6 +15.3 30 +37 +44 душно 1008.8 990.4
15 13.08 В 3 30 км ясно +35.4 +15.4 30 +37 +41 очень
душно
1008.5 990.1
16 13.08 В 3 30 км ясно +34.5 +14.9 31 +36 +37 душно 1008.5 990.1
17 13.08 В 3 30 км ясно +32.4 +14.1 33 +34 +34 очень
жарко
1008.5 989.9
18 13.08 Ю 1 30 км ясно +28.6 +14.4 42 +31 +31 жарко 1008.8 990.0 +35.7
19 13.08 штиль 0 20 км ясно +23.8 +14.1 55 +26 +26 жарко 1010.4 991.3
20 13.08 Ю 1 20 км 4/0
[Ci sp]
+22.5 +16.8 70 +27 +27 душно 1010.8 991.6
21 13.08 В 1 20 км ясно +22.2 +17.2 73 +27 +27 душно 1011.4 992.1
22 13.08 Ю 2 20 км 3/0
[Ci sp]
+21.2 +18.3 84 +25 +25 комфорт 1011.0 991.7
23 13.08 В 1 20 км 3/0
[Ci sp]
+20.1 +17.5 85 +24 +24 комфорт 1010.6 991.2
00 14.08 Ю 1 20 км ясно +19.6 +17.0 85 +23 +23 комфорт 1010.4 991.0
01 14.08 Ю 1 20 км ясно +18.2 +16.0 87 +20 +20 1010.4 990.9
03 14.08 Ю 1 20 км ясно +17.0 +15.4 90 +18 +18 1010.4 990.8
06 14.08 штиль 0 20 км 1/1 1000 м
[Cu med, cong]
+22.4 +16.6 70 +27 +32 душно 1011.1 991.8 +16.3
07 14.08 С 2 20 км 3/3 1000 м
[Cu med, cong]
+24.4 +16.9 63 +28 +33 душно 1011.2 992.1
08 14.08 С 3 20 км 5/5 1000 м
[Cu Sc]
+25.0 +16.9 61 +29 +33 душно 1011.9 992.8
09 14.08 СЗ 5 20 км 8/8 1000 м
[Cu Sc]
+23.2 +16.0 64 +28 +29 душно 1013.2 994.0
10 14.08 СЗ 7
{11}
10 км 10/10 1000 м
[Cu Sc]
+21.4 +16.3 73 +25 +25 комфорт 1014.0 994.6
11 14.08 СЗ 4 10 км 10/10 1000 м
[Cu Sc]
+20.7 +15.0 70 +24 +24 комфорт 1014.5 995.1
12 14.08 СЗ 3 15 км 10/5 1000 м
[Sc Ac As]
+20.9 +14.9 69 +24 +26 комфорт 1014.3 994.9
13 14.08 З 2 20 км 10/0
[Ac As]
+21.1 +15.6 71 +24 +28 комфорт 1014.0 994.6
14 14.08 СЗ 2 20 км 10/0
[Ac As]
+21.3 +16.1 72 +25 +27 комфорт 1013.1 993.7
15 14.08 З 2 20 км 10/5 1000 м
[Cu Sc Ac As]
+20.8 +16.0 74 +25 +25 комфорт 1013.4 994.0
16 14.08 З 3 15 км 10/10 1000 м
[Cu Sc]
+20.0 +15.6 76 +23 +23 комфорт 1014.0 994.5
17 14.08 С 2 10 км слаб. дождь 10/10 1000 м
[Cu Sc]
+19.0 +17.0 88 +21 +21 комфорт 1014.5 995.0
18 14.08 З 2 10 км слаб. дождь 10/5 1000 м
[Cu Sc Ac As]
+18.4 +16.5 89 +20 +20 1015.0 995.4 +25.2 5
19 14.08 СЗ 3 10 км дождь 10/6 1000 м
[Cu Sc As op]
+18.2 +16.5 90 +19 +19 1014.9 995.4
20 14.08 З 2 15 км 10/6 1000 м
[Cu Sc As op]
+17.8 +16.5 92 +18 +18 1015.0 995.5
21 14.08 З 3 20 км {дождь} 10/10 1000 м
[Cu Sc]
+17.6 +15.5 87 +18 +18 1015.6 996.0
22 14.08 СЗ 4 20 км 10/10 1000 м
[Cu Sc]
+17.4 +15.4 88 +17 +17 1015.4 995.8
23 14.08 СЗ 2 20 км 10/10 1000 м
[Cu Sc]
+17.4 +15.5 89 +18 +18 1015.3 995.7
00 15.08 ЮЗ 2 20 км {дождь} 10/10 1000 м
[Sc]
+17.2 +15.5 90 +18 +18 1015.6 996.0 2
01 15.08 ЮЗ 2 20 км 10/10 1000 м
[Sc]
+17.1 +15.4 90 +17 +17 1015.4 995.8
02 15.08 ЮЗ 2 20 км 10/10 1000 м
[Sc]
+17.0 +15.4 90 +17 +17 1015.4 995.8
03 15.08 З 1 20 км 10/10 1000 м
[Sc]
+16.8 +15.0 89 +18 +18 1015.1 995.4
04 15.08 З 3 20 км 10/10 1000 м
[Sc]
+16.7 +15.1 90 +16 +16 1015.2 995.5
05 15.08 З 2 20 км 9/9 1000 м
[Sc]
+16.9 +15.3 90 +17 +17 1015.2 995.5
06 15.08 З 2 20 км 9/9 1000 м
[Cu Sc]
+18.5 +16.2 86 +20 +20 1015.3 995.8 +16.7 2
07 15.08 СВ 10 20 км 9/9 1000 м
[Cu Sc]
+19.0 +16.2 84 +19 +19 1015.5 996.0
08 15.08 С 4 20 км слаб. дождь 9/9 1000 м
[Cu Sc]
+16.4 +15.6 95 +16 +16 1015.7 996.0
09 15.08 С 2 20 км в посл. час дождь 10/10 1000 м
[Cu Sc]
+18.7 +15.8 83 +20 +20 1015.5 996.0
10 15.08 СЗ 3 20 км {дождь} 10/10 1000 м
[Cu Sc]
+19.6 +14.7 73 +22 +22 комфорт 1015.5 996.0
11 15.08 ЮЗ 4 20 км 9/9 1000 м
[Cu Sc]
+20.2 +15.1 72 +23 +24 комфорт 1014.9 995.4
12 15.08 З 3 20 км {дождь} 8/8 1000 м
[Cu Sc]
+21.7 +14.7 64 +25 +27 комфорт 1014.2 994.9 0.5
13 15.08 З 4 20 км 8/8 1000 м
[Cu Sc]
+21.0 +14.3 66 +24 +26 комфорт 1014.0 994.6
14 15.08 З 3 20 км 4/4 1000 м
[Cu Sc]
+23.4 +13.9 55 +27 +31 душно 1013.9 994.6
15 15.08 З 4 20 км 4/4 1000 м
[Cu Sc]
+23.1 +13.4 54 +26 +28 жарко 1013.9 994.6
16 15.08 З 3 20 км 4/4 1000 м
[Cu Sc]
+23.3 +12.3 50 +26 +27 жарко 1013.0 993.8
17 15.08 З 2 20 км 3/1 1000 м
[Cu med, cong Ac trans]
+21.5 +13.6 61 +24 +24 комфорт 1013.2 993.9
18 15.08 З 1 20 км ясно +18.3 +11.5 65 +20 +20 1014.6 995.0 +23.7 0.5
19 15.08 Ю 1 20 км ясно +16.8 +12.4 75 +18 +18 1015.6 995.9
20 15.08 Ю 1 20 км ясно +15.3 +12.1 81 +16 +16 1016.0 996.2
21 15.08 Ю 2 20 км ясно +14.4 +11.7 84 +14 +14 1016.3 996.4
22 15.08 Ю 1 20 км ясно +13.3 +11.1 87 +13 +13 1016.5 996.5
23 15.08 Ю 1 20 км ясно +12.7 +10.6 87 +13 +13 1016.3 996.3
00 16.08 штиль 0 20 км ясно +12.0 +10.0 88 +11 +11 1016.2 996.2
01 16.08 Ю 1 20 км ясно +11.4 +9.7 89 +11 +11 1016.5 996.4
02 16.08 Ю 1 20 км ясно +10.6 +8.8 89 +10 +10 1016.6 996.5
03 16.08 В 1 20 км ясно +10.1 +8.6 90 +10 +10 1017.0 996.8
04 16.08 штиль 0 20 км ясно +10.2 +8.5 89 +9 +10 1017.4 997.2
05 16.08 штиль 0 25 км ясно +11.7 +9.2 85 +11 +13 1017.3 997.3
06 16.08 штиль 0 25 км ясно +14.6 +12.3 86 +14 +19 1016.9 997.1 +10.0
07 16.08 З 1 25 км 3/1 1000 м
[Cu hum Ac trans]
+17.7 +12.5 72 +19 +25 1016.7 997.1
08 16.08 З 2 25 км 3/1 1000 м
[Cu hum Ac trans]
+20.2 +12.1 60 +23 +31 комфорт 1016.5 997.0
09 16.08 СЗ 2 25 км 4/3 1000 м
[Cu med, cong Ac trans]
+22.2 +11.8 52 +25 +34 комфорт 1016.3 996.9
10 16.08 С 3 25 км 5/4 1000 м
[Cu med, cong Ac trans]
+23.8 +8.6 38 +24 +32 комфорт 1015.8 996.6
11 16.08 С 4 25 км 6/6 1000 м
[Cu Sc]
+24.6 +8.5 36 +25 +30 комфорт 1015.7 996.5
12 16.08 С 4 25 км 6/6 1000 м
[Cu Sc]
+24.8 +7.7 34 +25 +29 комфорт 1015.3 996.2
13 16.08 СЗ 4 25 км 8/8 1000 м
[Cu Sc]
+25.0 +8.1 34 +25 +27 комфорт 1015.2 996.1
14 16.08 С 4 25 км 8/8 1000 м
[Cu Sc]
+24.6 +7.9 34 +25 +26 комфорт 1015.0 995.9
15 16.08 С 2 25 км 8/8 1000 м
[Cu Sc]
+24.4 +8.1 35 +25 +26 комфорт 1015.0 995.8
16 16.08 С 2 25 км 6/6 1000 м
[Cu Sc]
+23.8 +7.9 36 +24 +25 комфорт 1015.1 995.9
17 16.08 С 2 25 км 3/3 1000 м
[Sc]
+23.7 +7.7 36 +24 +24 комфорт 1015.1 995.9
18 16.08 Ю 2 25 км 1/1 1000 м
[Sc]
+19.4 +11.4 60 +21 +21 комфорт 1015.7 996.2 +26.2
19 16.08 Ю 2 20 км 1/0
[Ac trans]
+17.3 +13.5 78 +18 +18 1016.4 996.7
20 16.08 Ю 2 20 км 1/0
[Ac trans]
+16.0 +13.5 85 +16 +16 1016.7 996.9
21 16.08 Ю 2 30 км ясно +14.9 +11.7 81 +15 +15 1017.8 997.8
22 16.08 Ю 2 20 км ясно +13.6 +10.9 84 +13 +13 1018.3 998.3
23 16.08 Ю 2 20 км 1/0
[Ac trans]
+13.5 +11.2 86 +13 +13 1018.2 998.3
00 17.08 Ю 1 20 км 3/0
[Ac trans]
+12.8 +10.9 88 +13 +13 1018.2 998.3
01 17.08 ЮВ 1 20 км 3/0
[Ac trans]
+12.6 +10.6 88 +13 +13 1018.2 998.3
02 17.08 СВ 1 20 км 4/0
[Ac trans]
+12.2 +10.3 88 +12 +12 1018.1 998.4
03 17.08 Ю 1 20 км 4/0
[Ac trans]
+11.8 +10.0 89 +12 +12 1018.0 998.5
04 17.08 штиль 0 20 км ясно +11.4 +9.8 90 +11 +11 1018.0 998.6
05 17.08 ЮВ 1 20 км ясно +13.0 +10.8 86 +13 +14 1018.7 998.7
06 17.08 В 1 20 км ясно +15.2 +12.7 85 +16 +20 1018.7 998.8 +10.7
07 17.08 С 1 20 км 1/0
[Ac trans]
+17.8 +12.8 73 +19 +27 1018.6 998.9
08 17.08 З 1 20 км 3/1 1000 м
[Cu hum Ac trans]
+20.9 +12.5 59 +24 +34 комфорт 1018.4 998.9
09 17.08 СЗ 2 20 км 3/3 1000 м
[Cu hum]
+22.3 +13.1 56 +25 +35 комфорт 1018.2 998.8
10 17.08 В 1 20 км 3/3 1000 м
[Cu med, cong]
+23.6 +13.0 51 +26 +39 жарко 1017.6 998.4
11 17.08 В 1 20 км 5/5 1000 м
[Cu Sc]
+25.3 +13.8 49 +28 +37 жарко 1017.0 997.8
12 17.08 З 2 20 км 6/6 1000 м
[Cu Sc]
+26.1 +13.5 46 +28 +34 жарко 1016.4 997.3
13 17.08 З 3 20 км 5/4 1000 м
[Cu Sc Ci sp]
+26.6 +13.8 45 +29 +34 жарко 1015.9 996.9
14 17.08 З 2 20 км 5/4 1000 м
[Cu Sc Ci sp]
+26.4 +12.7 43 +28 +33 жарко 1015.6 996.5
15 17.08 З 2 20 км 6/3 1000 м
[Cu med, cong Ci sp]
+27.6 +12.0 38 +29 +31 жарко 1015.2 996.2
16 17.08 З 1 20 км 5/1 1000 м
[Cu med, cong Ci sp]
+27.1 +12.0 39 +28 +30 жарко 1015.2 996.2
17 17.08 С 2 20 км 4/0
[Ac trans Ci sp]
+26.2 +11.4 40 +27 +28 жарко 1015.3 996.2
18 17.08 СВ 1 20 км ясно +24.1 +11.7 46 +26 +26 жарко 1015.6 996.4 +27.7
19 17.08 Ю 2 20 км ясно +19.2 +13.1 68 +21 +21 комфорт 1016.2 997.1
20 17.08 Ю 2 20 км ясно +18.0 +13.5 75 +19 +19 1016.8 997.1
21 17.08 Ю 2 20 км ясно +16.6 +13.1 80 +17 +17 1017.2 997.4
22 17.08 Ю 1 20 км ясно +15.4 +12.4 82 +16 +16 1017.5 997.6
23 17.08 ЮВ 1 20 км ясно +14.6 +11.8 83 +15 +15 1017.6 997.7
00 18.08 ЮВ 1 20 км ясно +14.3 +11.5 83 +15 +15 1018.0 998.0
01 18.08 Ю 1 20 км ясно +13.0 +10.3 84 +13 +13 1018.1 998.0
02 18.08 Ю 1 20 км ясно +12.6 +10.3 86 +13 +13 1018.0 997.9
03 18.08 Ю 1 20 км ясно +12.0 +9.7 86 +12 +12 1018.0 997.9
04 18.08 Ю 1 20 км ясно +11.7 +9.5 86 +12 +12 1019.2 998.1
05 18.08 Ю 1 20 км ясно +13.8 +11.2 84 +14 +15 1018.4 998.4
06 18.08 ЮВ 1 20 км ясно +17.4 +12.5 73 +18 +23 1018.4 998.7 +11.4
07 18.08 В 1 20 км ясно +19.8 +13.1 65 +23 +31 комфорт 1018.2 998.7
08 18.08 штиль 0 20 км ясно +22.3 +12.7 55 +25 +40 комфорт 1018.0 998.6
09 18.08 В 2 20 км ясно +24.8 +12.8 47 +27 +41 жарко 1017.5 998.2
10 18.08 В 2 20 км 3/0
[Ci sp]
+27.0 +12.4 40 +28 +43 жарко 1017.0 997.9
11 18.08 З 1 20 км 3/0
[Ci sp]
+28.0 +11.1 35 +29 +46 жарко 1016.4 997.4
12 18.08 ЮВ 2 20 км 3/0
[Ci sp]
+29.0 +11.4 34 +30 +43 жарко 1015.9 997.0
13 18.08 Ю 2 20 км ясно +29.6 +11.7 33 +30 +42 жарко 1015.4 996.6
14 18.08 Ю 1 20 км ясно +30.0 +10.5 30 +30 +39 жарко 1015.0 996.2
15 18.08 СВ 2 20 км ясно +30.1 +10.6 30 +30 +34 жарко 1014.9 996.1
16 18.08 Ю 1 20 км ясно +29.6 +11.7 33 +30 +32 жарко 1014.8 996.0
17 18.08 З 1 20 км ясно +26.6 +13.0 43 +28 +28 жарко 1015.1 996.1
18 18.08 Ю 1 20 км ясно +24.8 +13.5 49 +27 +27 жарко 1015.2 996.1 +30.5
19 18.08 Ю 3 20 км ясно +20.8 +13.5 63 +24 +24 комфорт 1015.9 996.5
20 18.08 Ю 1 20 км ясно +19.2 +13.5 70 +22 +22 комфорт 1016.5 996.9
21 18.08 Ю 2 20 км ясно +17.6 +13.8 78 +18 +18 1016.6 997.0
22 18.08 ЮВ 1 20 км ясно +17.3 +13.2 77 +18 +18 1017.1 997.4
23 18.08 Ю 1 20 км ясно +15.7 +12.8 83 +16 +16 1017.2 997.4
00 19.08 Ю 1 20 км ясно +14.5 +12.3 87 +15 +15 1017.4 997.5
01 19.08 В 1 20 км ясно +14.8 +12.8 88 +15 +15 1017.4 997.5
02 19.08 Ю 1 20 км ясно +13.7 +12.0 89 +14 +14 1017.5 997.6
03 19.08 ЮВ 1 20 км ясно +13.5 +12.0 91 +14 +14 1017.6 997.7
04 19.08 Ю 1 20 км ясно +12.7 +11.7 94 +13 +13 1017.8 997.8
05 19.08 Ю 1 20 км ясно +14.0 +12.7 92 +14 +15 1018.2 998.3
06 19.08 Ю 1 20 км ясно +17.0 +12.7 76 +18 +22 1018.1 998.4 +12.7
07 19.08 Ю 1 25 км ясно +20.2 +11.8 58 +23 +31 комфорт 1018.0 998.5
08 19.08 ЮВ 1 25 км ясно +24.3 +14.0 53 +27 +39 жарко 1017.4 998.2
09 19.08 Ю 1 25 км ясно +27.2 +14.5 46 +30 +46 душно 1017.2 998.1
10 19.08 ЮВ 2 25 км ясно +29.4 +14.5 40 +31 +47 жарко 1016.6 997.7
11 19.08 В 1 25 км ясно +31.0 +13.9 35 +32 +51 опасность
солнечного
удара
1016.4 997.6
12 19.08 Ю 1 25 км ясно +31.9 +12.4 30 +32 +49 жарко 1015.8 997.1
13 19.08 ЮВ 2 30 км 1/0
[Ci sp]
+33.4 +11.8 27 +33 +44 жарко 1015.7 997.0
14 19.08 В 2 30 км 1/0
[Ci sp]
+33.6 +11.8 27 +34 +41 очень
жарко
1015.2 996.6
15 19.08 ЮВ 1 30 км 1/0
[Ci sp]
+33.8 +12.7 28 +34 +39 очень
жарко
1014.9 996.3
16 19.08 ЮВ 1 30 км 1/0
[Ci sp]
+33.0 +12.7 29 +33 +35 жарко 1014.9 996.3
17 19.08 ЮВ 1 25 км 1/0
[Ci sp]
+31.6 +14.1 35 +33 +33 жарко 1015.0 996.3
18 19.08 Ю 1 25 км 1/0
[Ci sp]
+26.7 +15.5 50 +30 +30 душно 1016.0 997.0 +33.8
19 19.08 ЮВ 1 20 км ясно +24.2 +16.3 61 +28 +28 душно 1016.5 997.3
20 19.08 Ю 1 20 км ясно +21.7 +16.0 70 +25 +25 комфорт 1017.0 997.7
21 19.08 Ю 1 20 км ясно +19.3 +15.4 78 +22 +22 комфорт 1017.8 998.4
22 19.08 Ю 2 20 км ясно +18.4 +15.0 81 +19 +19 1018.2 998.6
23 19.08 Ю 1 20 км ясно +17.6 +15.0 85 +19 +19 1018.2 998.7
00 20.08 Ю 1 20 км ясно +16.7 +14.7 88 +18 +18 1018.4 998.7
01 20.08 Ю 1 20 км ясно +15.6 +13.6 88 +16 +16 1018.5 998.7

 

Местоположение метеостанции Крушевац (Сербия): широта 43.57 долгота 21.35 высота над уровнем моря 167 м.

В архиве по умолчанию представлена погода в Крушеваце за последнюю неделю. Архивные данные за месяц целиком и за предыдущие месяцы, начиная с января 2011 года, Вы можете получить, выбрав интересующий диапазон дат из раскрывающегося списка и нажав кнопку "Ввод!".


*Определитесь, кто Вы:
робот инопланетянин человек

Внимание! Время в таблицах - всемирное. Для получения местного времени необходимо прибавить поправку, которая равна 1 ч.

Смотрите также архив погоды в соседних городах и на ближайших метеорологических станциях:

Погода в Чуприи (Сербия) (40 км)
Погода в Нише (Сербия) (52 км)
Погода в Кралево (Сербия) (54 км)
Погода на Копаонике (Сербия) (55 км)
Погода в Крагуеваце (Сербия) (61 км)
Погода на Црни Врх (Сербия) (78 км)
Погода в Лесковаце (Сербия) (82 км)
Погода в Смедеревска-Паланке (Сербия) (95 км)
Погода в Кукесе (Албания) (96 км)
Погода в Пожега Ужичка (Сербия) (110 км)

Пояснения к столбцам:

Ветер - указаны скорость ветра в м/с - средняя за 10 мин, порывы в срок и между сроками (в фигурных скобках) и направление, откуда дует ветер: С - северный, СВ - северо-восточный, В - восточный, ЮВ - юго-восточный, Ю - южный, ЮЗ - юго-западный, З - западный, СЗ - северо-западный.
Видимость - горизонтальная дальность видимости в метрах или километрах. При видимости от 1 до 10 км при отсутствии осадков обычно наблюдается дымка, при ухудшении видимости до 1 км и менее - туман. В сухую погоду видимость может ухудшаться дымом, пылью или мглою.
Явления - указаны атмосферные явления, наблюдавшиеся в срок или в последний час перед сроком; фигурными скобками обозначены явления, наблюдавшиеся между сроками (за 1-3 часа до срока); квадратными скобками обозначены град или гололедные отложения с указанием их диаметра в мм.
Облачность - указаны через наклонную черту общая и нижняя облачность в баллах и высота нижней границы облаков в метрах; квадратными скобками обозначены формы облаков: Ci - перистые, Cs - перисто-слоистые, Cc - перисто-кучевые, Ac - высококучевые, As - высокослоистые, Sc - слоисто-кучевые, Ns - слоисто-дождевые, Cu - кучевые, Cb - кучево-дождевые. Подробнее классификацию облаков см. в Атласе облаков (PDF).
T - Температура воздуха - температура, измеренная на высоте 2 м над землей.
Td - Температура точки росы - температура, при понижении до которой содержащийся в воздухе водяной пар достигнет насыщения.
f - Относительная влажность воздуха - влажноcть воздуха, измеренная на высоте 2 м над землей.
Te - Эффективная температура - температура, которую ощущает одетый по сезону человек в тени. Характеристика душности погоды. При расчете учитывается влияние влажности воздуха и скорости ветра на теплоощущения человека.
Tes - Эффективная температура на солнце - температура, которую ощущает человек, с поправкой на солнечный нагрев. Характеристика знойности погоды. Зависит от высоты солнца над горизонтом, облачности и скорости ветра. Ночью, в пасмурную погоду, а также при ветре 12 м/с и более поправка равна нулю.
P - Атмосферное давление - приведенное к уровню моря атмосферное давление.
Po - Атмосферное давление - измеренное на уровне метеостанции атмосферное давление.
Tmin - Минимальная температура - минимум температуры воздуха на высоте 2 м над землей.
Tmax - Максимальная температура - максимум температуры воздуха на высоте 2 м над землей.
R - Количество осадков - Количество выпавших осадков за период времени, мм. При наведении курсора мыши на число - период времени, за который выпало указанное количество осадков.
R24 - Количество осадков - Количество выпавших осадков за 24 часа, мм.
S - Снежный покров - Высота снежного покрова, см. При наведении курсора мыши на число - состояние снежного покрова и степень покрытия местности в баллах.